Regional Weather Roundup
Issued by NWS

Current Version | Previous Version | Text Only | Print | Product List | Glossary On
Versions: 1 2 3 4 5 6 7 8 9 10 11 12 13 14 15 16 17 18 19 20 21 22 23 24 25 26 27 28 29 30 31 32 33 34 35 36 37 38 39 40 41 42 43 44 45 46 47 48 49 50
000
ASHW40 PHFO 010413
RWRHI

WEATHER ROUNDUP FOR HAWAII
NATIONAL WEATHER SERVICE HONOLULU HI
600 PM HST TUE MAY 31 2016

THIS IS AN AUTOMATED REPORT THAT HAS NOT BEEN QUALITY CONTROLLED.

NOTE..."FAIR" INDICATES FEW OR NO CLOUDS BELOW 12,000 FEET WITH NO
SIGNIFICANT WEATHER AND/OR OBSTRUCTIONS TO VISIBILITY.

* - THESE SITES REPORT LIMITED FIELDS

HIZ001>004-010500-
KAUAI-NIIHAU-

CITY           SKY/WX    TMP DP  RH WIND       PRES   REMARKS
LIHUE APT      CLOUDY    72  67  84 NE20      30.01S
PORT ALLEN*      N/A     77 N/A N/A NE17G25     N/A
POIPU*           N/A     73 N/A N/A N6G16       N/A
PRINCEVILLE*     N/A     70 N/A N/A NE7G15      N/A
KOKOLE POINT*  NOT AVBL
MOLOAA DAIRY*    N/A     73  70  88 E6G14       N/A
WAIMEA HTS*    NOT AVBL
PUU OPAE*      NOT AVBL
PUU LUA*       NOT AVBL
MAKAHA RIDGE*  NOT AVBL
$$

HIZ005>011-010500-
OAHU-

CITY           SKY/WX    TMP DP  RH WIND       PRES   REMARKS
HONOLULU       MOSUNNY   77  64  64 NE7       29.98S
KALAELOA       MOSUNNY   78  63  59 NE12G18   29.99S
KANEOHE MCB    CLOUDY    76  65  68 NE9       29.99R
WHEELER FIELD  FAIR      73  64  71 N8        30.00R
BELLOWS*       NOT AVBL
KAHUKU*        NOT AVBL
WHEELER*       NOT AVBL
WAIANAE HARBOR NOT AVBL
DILLINGHAM*      N/A     75  63  64 MISG        N/A
KAHUKU TRN*      N/A     75  61  60 CALM        N/A
KAWAILOA*        N/A     70  63  78 E13G25      N/A
KII*             N/A     77  66  69 E15         N/A
MAKUA RANGE*     N/A    N/A N/A N/A E14G22      N/A
OAHU FOREST NW NOT AVBL
SCHOFIELD BRK*   N/A     73  63  68 MISG        N/A
SCHOFIELD S*   NOT AVBL
WAIANAE VLY*   NOT AVBL
KUAOKALA*      NOT AVBL
HONOULIUULI*   NOT AVBL
MOKUOLOE IS*   NOT AVBL
PALEHUA*       NOT AVBL
WAIAWA PHB*    NOT AVBL
$$

HIZ012>013-010500-
MOLOKAI-

CITY           SKY/WX    TMP DP  RH WIND       PRES   REMARKS
MOLOKAI AIRPT  CLOUDY    75  65  70 NE14G26   29.99F
KALAUPAPA      NOT AVBL
MAKAPULAPAI*   NOT AVBL
MOLOKAI 1*     NOT AVBL
PUU ALII*      NOT AVBL
$$

HIZ016-010500-
KAHOOLAWE-

CITY           SKY/WX    TMP DP  RH WIND       PRES   REMARKS
KAHOOLAWE*     NOT AVBL
HAKIOAWA*      NOT AVBL
HONOKANAIA*      N/A     78  67  69 N18G35      N/A
KANELOA*         N/A     73  68  83 N17G35    30.02S
KEALIALALO*    NOT AVBL
LUA MAKIKA*    NOT AVBL
$$

HIZ014>015-010500-
LANAI-

CITY           SKY/WX    TMP DP  RH WIND       PRES   REMARKS
LANAI CITY     PTSUNNY   71  65  81 NE17G33   30.01R
LANAI 1*       NOT AVBL
$$

HIZ017>028-010500-
MAUI-

CITY           SKY/WX    TMP DP  RH WIND       PRES   REMARKS
KAHULUI        PTSUNNY   72  69  90 E6        29.99F
KAPALUA-W MAUI MOSUNNY   73  66  78 E15G22    29.99
HANA AIRPORT   NOT AVBL
HANA*            N/A     72 N/A N/A SW6G12      N/A
HALEAKALA SUMM   N/A     48  48 100 SE8         N/A
MAALAEA BAY*   NOT AVBL
HALEAKALA*     NOT AVBL
KAUPO GAP*     NOT AVBL
KULA 1*          N/A     55  54  97 S1          N/A
$$

HIZ023>026-010500-
BIG ISLAND OF HAWAII COAST AND LOWER SLOPES-

CITY           SKY/WX    TMP DP  RH WIND       PRES   REMARKS
KAILUA KONA    MOSUNNY   83  69  62 S12       29.92S
HILO           CLOUDY    75  70  84 N8        29.97R HAZE
HONOKAA*         N/A     70 N/A N/A VRB1        N/A
KAWAIHAE MWT*    N/A     84 N/A N/A W10G16      N/A
KAWAIHAE*      NOT AVBL
SOUTH POINT*     N/A     70 N/A N/A N9          N/A
UPOLU AIRPORT*   N/A    N/A N/A N/A NE23G29     N/A
KAMUELA*       CLOUDY    66  63  88 NE13      30.06S
HAKALAU*         N/A     56  55  98 NE6G12      N/A
KALOKO-HONOKO* NOT AVBL
PALI 2*          N/A     66  66 100 VRB1        N/A
KEALAKOMO*       N/A     73  70  88 W5G12       N/A
KAUPULEHU*     NOT AVBL
KAPAPALA*        N/A     67  66  97 W3          N/A
LOWER KAHUKU*  NOT AVBL
PUHE CS*       NOT AVBL
PUHO CS*       NOT AVBL
PTA KEAMUKU*     N/A     66  61  82 CALM        N/A
WAIKOLOA*      NOT AVBL
$$

HIZ027>028-010500-
BIG ISLAND OF HAWAII INTERIOR AND SUMMMITS-

CITY           SKY/WX    TMP DP  RH WIND       PRES   REMARKS
BRADSHAW FIELD CLOUDY    64  53  66 W9        30.26S
MK VISITOR CEN   N/A     50  46  87 W5          N/A
MAUNA KEA*       N/A     46  14  27 N9          N/A
MAUNA LOA*       N/A     48  39  71 MISG        N/A
MAUNA LOA 1*   NOT AVBL
PTA KIPUKA*      N/A     72  66  83 N6G13       N/A
PTA RANGE 17*    N/A    N/A N/A N/A W9G15       N/A
PTA WEST*        N/A     73  70  88 NW8         N/A
NENE CABIN*    NOT AVBL
AHUMOA*        NOT AVBL
PTA PORTABLE*  NOT AVBL
PUU MALI*        N/A     54  54 100 NE10        N/A
$$

HIC003-010500-
NORTHWEST ISLANDS-

CITY           SKY/WX    TMP DP  RH WIND       PRES   REMARKS
MIDWAY ISLAND  SUNNY     77  70  78 SE8       30.11S
MIDWAY NOS*    NOT AVBL
FRENCH FRIGATE NOT AVBL
$$

PHZ110>124-180-010500-
BUOY REPORTS

STATION/POSITION TIME  TEMP    WIND        PRES    WAVE   SWELL
                       AIR SEA DIR/SP/G            HT/PER HT/DIR
                 (UTC) (F)     (DEG/KT/KT) (MB)    (FT/S) (FT/D)
BUOY 51001       0300   79 80   70/ 10/ 12 1015.8F
BUOY 51101       0350   75 78   50/ 17/ 21 1017.7S   7/ 7   2/140
BUOY 51100       NOT AVBL
BUOY 51002       0350   79 80   80/ 10/ 12 1013.8R   4/14   5/160
BUOY 51003       0350   78 80   50/ 14/ 16 1014.1R   6/ 7   5/ 20
BUOY 51004       0350   78 80   60/ 10/ 10 1014.2R   5/12   5/170
BARBERS PT BUOY  NOT AVBL
WAIMEA BAY BUOY  0304      78                N/A     5/ 7   2/300
KAILUA BAY BUOY  0311      79                N/A     6/ 8   2/120
LANAI BUOY       0315      79                N/A     3/13   2/190
BARBERS PT 2     0303      79                N/A     4/13   3/180
PAUWELA MAUI     0309      78                N/A     6/ 7   2/340
HILO             0312      80                N/A     4/ 7   2/140
KANEOHE BAY BUOY 0306      78                N/A     6/ 7
HANALEI KAUAI    NOT AVBL
KAHULUI HARBOR   0300      80              1015.6
HONOLULU HARBOR  0300      79              1015.8
KILO NALU        NOT AVBL
HILO HARBOR      0300      78              1014.3
MOKUOLOE         0300   77 81   50/ 11/ 14 1015.9R
NAWILIWILI       0300      80              1016.1
WHOTS BUOY       NOT AVBL
BUOY 51028       NOT AVBL
$$

......................KEY........................................
  SKY/WX - SKY CONDITIONS/PRESENT WEATHER
  TMP    - TEMPERATURE IN FAHRENHEIT
  DWPT   - DEWPOINT IN FAHRENHEIT
  RH     - RELATIVE HUMIDITY IN PERCENT
  WIND   - DIRECTION AND SPEED /MPH FOR ISLANDS...KTS FOR BUOYS/
  PRES   - MEAN SEA LEVEL PRESSURE IN INCHES OF HG
  VSB    - VISIBILITY IN MILES
  HX     - HEAT INDEX
  WCI    - WIND CHILL INDEX
  VRB    - VARIABLE WIND DIRECTION
  N/A    - NOT AVAILABLE



USA.gov is the U.S. government's official web portal to all federal, state and local government web resources and services.